SPACEBEE-88 (48935 NORAD) Tracking and Keplerian Element Data

This shows tracking and keplerian element data for the satellite.

Feedback or suggestion? Click here.




ElementValue
Catalog48935
NameSPACEBEE-88
Epoch Orbit1397
Epoch Day269.14533481
Epoch Year2021
RAAN36.8096
Inclination97.5193
Eccentricity0.0016372
Argument of Perigee297.6943
Mean Anonmoly62.2628
Mean Motion15.14710998
Decay Rate7.358E-05
L11 48935U 21059BJ 21269.14533481 .00007358 00000-0 39954-3 0 9991
L22 48935 97.5193 36.8096 0016372 297.6943 62.2628 15.14710998 13977

Live tracking and technical data element details for SPACEBEE-88 (NORAD 48935). SPACEBEE-88 can be tracked NOW for your location showing map with azimuth and elevation plus other details from your city location.

Track the satellite on the map from your city or location and see movement details for azimuth, elevation, latitude, longitude, range, height, and movement on the map or in text.







IsCatalogInMostPopularTable: catalog: 48935, numindb: 15
Update: records affected: 1



GetName: 48935 SPACEBEE-88

Hit Count: updated at: Sun, 26 Sep 2021 15:48:38 GMT